Starlink 2504

operational
NORAD ID: 48328 Int'l Des: 2021-036 Owner: SPXS Country: US Constellation: starlink
LEOCIRCULARSTARLINK_TYPE

Über Starlink 2504

Beschreibung wird geladen...

Live-Position

3D-Globus wird geladen...

Nächste Überflüge

Höhenverlauf

Altitude vs Time

uPlot chart will show altitude changes over time

Zweizeiliger Elementsatz

1 48328U 21036BE 26034.58651488 .00000705 00000-0 66217-4 0 9995
2 48328 53.0550 254.7121 0001541 92.3078 267.8088 15.06397100262895
Epoch: 3. Feb. 2026 • Age: 17 hours

Aktueller Status

Höhe 549.6 km
Geschwindigkeit 7.59 km/s
Subsatellitenpunkt -7.46°S, 1.92°W
Startdatum 29. Apr. 2021
Alter 4.7 years
Typ internet

Technische Details

Klassifizierung Payload
Masse 260.00 kg
Trockenmasse 248.00 kg
Gesamtmasse 260.00 kg
Länge 0.20 m
Durchmesser 2.80 m
Spannweite 9.00 m
Form Box + pan
Hersteller SPXS
Bus-Typ Starlink
Phasenstatus In Orbit
Besitzer/Staat SPXS/US

Große Konstellationen

Loading constellations...